Regional Weather Roundup
Issued by NWS Newport/Morehead, NC

Current Version | Previous Version | Text Only | Print | Product List | Glossary On
Versions: 1 2 3 4 5 6 7 8 9 10 11 12 13 14 15 16 17 18 19 20 21 22 23 24 25 26 27 28 29 30 31 32 33 34 35 36 37 38 39 40 41 42 43 44 45 46 47 48 49 50
025 ASUS42 KMHX 242214 RWRMHX WEATHER ROUNDUP FOR EASTERN NORTH CAROLINA NATIONAL WEATHER SERVICE NEWPORT/MOREHEAD CITY NC 600 PM EDT WED MAY 24 2017 NOTE: "FAIR" INDICATES FEW OR NO CLOUDS BELOW 12,000 FEET WITH NO SIGNIFICANT WEATHER AND/OR OBSTRUCTIONS TO VISIBILITY NCZ015>017-031-032-045>047-102-103-242300- NORTH COAST CITY SKY/WX TMP DP RH WIND PRES REMARKS EDENTON CLOUDY 69 65 85 E18 29.68R ELIZABETH CITY CLOUDY 65 62 90 E16 29.70R KITTY HAWK CLOUDY 64 62 94 E7 29.69S MANTEO CLOUDY 65 61 86 E10 29.70S $$ NCZ045>047-081-094-103-104-242300- CENTRAL COAST CITY SKY/WX TMP DP RH WIND PRES REMARKS FRISCO NOT AVBL $$ NCZ095-097-098-100-101-242300- SOUTHERN COAST CITY SKY/WX TMP DP RH WIND PRES REMARKS BEAUFORT CLOUDY 78 75 90 S13 29.67R CEDAR ISLAND NOT AVBL JACKSONVILLE CLOUDY 78 73 84 S10 29.63R PINEY ISLAND CLOUDY N/A N/A N/A S16 29.67R WILMINGTON CLOUDY 74 70 87 S16G32 29.64R $$ NCZ011>013-027>030-043-044-078>080-089-090>093-098-242300- COASTAL PLAIN CITY SKY/WX TMP DP RH WIND PRES REMARKS AHOSKIE N/A 70 66 89 E5 29.65S CLINTON RAIN 74 73 95 CALM 29.60R ELIZABETHTOWN LGT RAIN 77 72 83 S8 29.59S GOLDSBORO TSTM 75 75 100 SE12G18 29.58S FOG GREENVILLE CLOUDY 77 70 78 S8 29.66R HAZE HAVELOCK PTSUNNY 78 71 79 S12 29.67R KENANSVILLE CLOUDY 77 70 78 S5 29.62R KINSTON CLOUDY 79 70 73 SE8 29.63R NEW BERN CLOUDY 78 71 79 S12 29.66R RICHLANDS PTSUNNY 78 71 79 S12 29.63R ROCKY MOUNT CLOUDY 74 70 87 CALM 29.61R WASHINGTON CLOUDY 76 70 80 E7 29.63S WHITEVILLE LGT RAIN 77 68 73 SE10G17 29.58S $$ AMZ130-135-150-152-154-156-158-170-250-252-270-ANZ085-086-088-633-658-670-242300- MARINE OBSERVATIONS STATION/POSITION TIME TEMP WIND PRES WAVE SWELL AIR SEA DIR/SP/G HT/PER HT/PER (UTC) (F) (DEG/KT/KT) (MB) (FT/S) (FT/S) CHESAPEAKE LIGHT NOT AVBL 64 E VA BEACH 2150 61 65 30/ 10/ 12 1006.5 4/ 6 3/ 6 DUCK 2142 61 65 60/ 14/ 16 1005.1 2 E DUCK 2100 65 N/A 4/ 6 OREGON INLET 2148 60/ 10/ 12 1005.4 13E OREGON INLT 2148 66 N/A 4/ 7 3/ 7 HATTERAS CG 2142 76 73 150/ 8/ 12 1004.7 DIAMOND BUOY 2150 76 75 190/ 10/ 12 1005.0 4/ 8 3/ 8 CAPE LOOKOUT 2200 77 200/ 10/ 13 1004.6 BEAUFORT LAB 2142 77 73 200/ 13/ 15 1003.8 30 SE NEW RVR IN 2108 78 76 210/ 16/ 21 1003.9 30 SE NEW RVR IN 2143 76 N/A 7/ 8 27 SE WRIGHTSVLE 2108 76 76 200/ 16/ 21 1003.8 5 SE WRIGHTSVLE 2108 77 75 200/ 14/ 21 1003.6 225 S CAPE HAT 2150 77 77 190/ 16/ 19 1009.2 8/ 7 41 SE CHARLESTON 2150 72 76 180/ 17/ 21 1002.6 7/ 6 $$

USA.gov is the U.S. government's official web portal to all federal, state and local government web resources and services.